Location: Unspecified
(0.0000°N, 0.0000°E)
Time: 19:42:12
(UTC+00:00)

Hubble Space Telescope - Pass Details

Date: 27 February 2021
Orbit: 536 x 539 km, 28.5° (Epoch: 25 February)

Event Time Altitude Azimuth Distance (km) Brightness Sun altitude
Exits shadow 04:31:07 12° 16° (NNE) 1,681 3.3 -25.1°
Maximum altitude 04:31:51 12° 27° (NNE) 1,655 3.4 -24.9°
Drops below altitude 10° 04:33:27 10° 50° (NE) 1,779 3.9 -24.5°
Sets 04:37:02 0° 82° (E) 2,671 5.6 -23.7°
